Date String (YYYY-MM-DD hh:mm:ss) UTC,Instrument flags,Ambient pressure (hPa),Sample flow (lpm),Bypass flow (lpm),Sample temperature (°C),Ambient temperature (°C),ASC tube jacket temperature (°C),LED temperature (°C),Box temperature (°C),Sample RH (%),Span deviation,Mass concentration (μg/m³),Mass concentration (μg/m³),Mass concentration (μg/m³)
DateTimeUTC,F1_M11,P_M11,Q1_M11,Q2_M11,T1_M11,T2_M11,T3_M11,T4_M11,T5_M11,U1_M11,ZSPAN_M11,X0_M11,X2_M11,X1_M11
2022-11-06 15:00:00,,0822.6,5.00,0.00,23.0,21.7,00.0,31.8,25.0,16.0,0000.0,0005.82,0001.70,0000.79
2022-11-06 15:01:00,,0822.5,4.99,0.00,23.0,21.7,00.0,31.8,24.9,16.0,0000.0,0005.82,0001.72,0000.78
2022-11-06 15:02:00,,0822.6,5.01,0.00,23.0,21.7,00.0,31.8,25.0,16.0,0000.0,0005.77,0001.72,0000.78
2022-11-06 15:03:00,,0822.5,5.01,0.00,23.1,21.7,00.0,31.8,25.0,16.0,0000.0,0005.10,0001.66,0000.77
2022-11-06 15:04:00,,0822.6,5.00,0.00,23.1,21.7,00.0,31.8,25.0,16.0,0000.0,0004.17,0001.61,0000.75
2022-11-06 15:05:00,,0822.6,4.99,0.00,23.1,21.7,00.0,31.8,25.0,15.9,0000.0,0004.33,0001.61,0000.74
2022-11-06 15:06:00,,0822.7,4.99,0.00,23.0,21.7,00.0,31.8,25.0,15.8,0000.0,0004.58,0001.64,0000.73
2022-11-06 15:07:00,,0822.6,5.01,0.00,23.0,21.7,00.0,31.8,25.0,15.8,0000.0,0005.18,0001.63,0000.71
2022-11-06 15:08:00,,0822.6,5.01,0.00,23.0,21.7,00.0,31.8,25.0,15.8,0000.0,0005.94,0001.62,0000.70
2022-11-06 15:09:00,,0822.6,5.00,0.00,23.0,21.7,00.0,31.8,25.0,15.9,0000.0,0007.39,0001.64,0000.71
2022-11-06 15:10:00,,0822.6,5.00,0.00,23.0,21.7,00.0,31.8,24.9,15.9,0000.0,0007.38,0001.64,0000.71
2022-11-06 15:11:00,,0822.7,5.00,0.00,23.0,21.7,00.0,31.8,25.0,15.9,0000.0,0007.36,0001.68,0000.71
2022-11-06 15:12:00,,0822.7,4.99,0.00,23.0,21.7,00.0,31.8,25.0,15.9,0000.0,0007.54,0001.62,0000.71
2022-11-06 15:13:00,,0822.7,5.00,0.00,23.0,21.7,00.0,31.8,25.0,15.9,0000.0,0007.81,0001.59,0000.70
2022-11-06 15:14:00,,0822.7,4.99,0.00,23.0,21.7,00.0,31.8,25.0,16.0,0000.0,0007.88,0001.64,0000.71
2022-11-06 15:15:00,,0822.7,5.01,0.00,23.0,21.7,00.0,31.8,25.0,16.1,0000.0,0008.38,0001.66,0000.70
2022-11-06 15:16:00,,0822.7,5.00,0.00,23.0,21.7,00.0,31.8,25.0,16.0,0000.0,0008.66,0001.63,0000.71
2022-11-06 15:17:00,,0822.7,5.00,0.00,23.0,21.7,00.0,31.8,25.0,15.9,0000.0,0008.84,0001.60,0000.71
2022-11-06 15:18:00,,0822.7,5.00,0.00,23.0,21.7,00.0,31.8,24.9,16.0,0000.0,0008.73,0001.65,0000.72
2022-11-06 15:19:00,,0822.7,5.01,0.00,23.0,21.7,00.0,31.8,25.0,16.2,0000.0,0008.39,0001.66,0000.73
2022-11-06 15:20:00,,0822.7,5.00,0.00,23.0,21.7,00.0,31.8,25.0,16.1,0000.0,0007.32,0001.67,0000.74
2022-11-06 15:21:00,,0822.7,5.02,0.00,23.0,21.7,00.0,31.8,25.0,16.2,0000.0,0007.38,0001.67,0000.74
2022-11-06 15:22:00,,0822.6,4.99,0.00,23.0,21.7,00.0,31.8,25.0,16.1,0000.0,0007.40,0001.68,0000.74
2022-11-06 15:23:00,,0822.8,4.99,0.00,23.0,21.7,00.0,31.8,24.9,16.0,0000.0,0007.72,0001.66,0000.74
2022-11-06 15:24:00,,0822.9,5.00,0.00,23.0,21.7,00.0,31.8,25.0,15.7,0000.0,0007.37,0001.63,0000.74
2022-11-06 15:25:00,,0822.9,5.02,0.00,23.0,21.6,00.0,31.8,24.9,15.9,0000.0,0007.18,0001.58,0000.74
2022-11-06 15:26:00,,0822.9,5.00,0.00,23.0,21.6,00.0,31.8,24.9,15.8,0000.0,0006.33,0001.60,0000.75
2022-11-06 15:27:00,,0822.9,4.99,0.00,23.0,21.6,00.0,31.8,24.9,15.7,0000.0,0006.41,0001.70,0000.75
2022-11-06 15:28:00,,0823.0,5.02,0.00,23.0,21.5,00.0,31.8,24.9,15.8,0000.0,0005.96,0001.72,0000.75
2022-11-06 15:29:00,,0823.0,4.99,0.00,22.9,21.4,00.0,31.8,24.8,15.7,0000.0,0005.57,0001.66,0000.75
2022-11-06 15:30:00,,0823.0,5.01,0.00,22.9,21.2,00.0,31.8,24.8,15.8,0000.0,0005.84,0001.66,0000.75
2022-11-06 15:31:00,,0823.0,4.99,0.00,22.9,21.2,00.0,31.8,24.8,15.9,0000.0,0007.07,0001.65,0000.75
2022-11-06 15:32:00,,0823.0,5.00,0.00,22.9,21.2,00.0,31.8,24.8,16.0,0000.0,0008.20,0001.63,0000.74
2022-11-06 15:33:00,,0823.1,5.01,0.00,22.9,21.1,00.0,31.7,24.7,15.8,0000.0,0008.44,0001.60,0000.74
2022-11-06 15:34:00,,0823.0,4.98,0.00,22.8,21.1,00.0,31.7,24.6,15.9,0000.0,0007.88,0001.58,0000.75
2022-11-06 15:35:00,,0823.0,5.00,0.00,22.8,21.1,00.0,31.7,24.7,16.1,0000.0,0007.85,0001.58,0000.75
2022-11-06 15:36:00,,0823.1,5.00,0.00,22.8,21.1,00.0,31.7,24.7,16.0,0000.0,0008.24,0001.67,0000.74
2022-11-06 15:37:00,,0822.9,5.00,0.00,22.8,21.1,00.0,31.7,24.6,15.9,0000.0,0008.86,0001.64,0000.73
2022-11-06 15:38:00,,0822.9,5.02,0.00,22.7,21.1,00.0,31.6,24.6,15.9,0000.0,0008.52,0001.60,0000.73
2022-11-06 15:39:00,,0822.9,4.98,0.00,22.7,21.0,00.0,31.6,24.6,16.0,0000.0,0008.50,0001.62,0000.73
2022-11-06 15:40:00,,0822.9,5.02,0.00,22.7,21.0,00.0,31.6,24.5,16.1,0000.0,0008.57,0001.64,0000.72
2022-11-06 15:41:00,,0823.1,4.99,0.00,22.7,21.0,00.0,31.6,24.5,16.3,0000.0,0008.48,0001.66,0000.71
2022-11-06 15:42:00,,0823.2,5.01,0.00,22.7,21.1,00.0,31.6,24.5,16.2,0000.0,0007.51,0001.67,0000.71
2022-11-06 15:43:00,,0823.3,5.00,0.00,22.7,21.2,00.0,31.6,24.5,16.2,0000.0,0006.38,0001.74,0000.73
2022-11-06 15:44:00,,0823.2,4.99,0.00,22.7,21.2,00.0,31.6,24.6,16.4,0000.0,0006.11,0001.75,0000.72
2022-11-06 15:45:00,,0823.2,5.01,0.00,22.7,21.3,00.0,31.6,24.6,16.3,0000.0,0006.26,0001.79,0000.72
2022-11-06 15:46:00,,0823.2,4.98,0.00,22.7,21.3,00.0,31.5,24.6,16.0,0000.0,0006.30,0001.82,0000.72
2022-11-06 15:47:00,,0823.2,5.01,0.00,22.7,21.3,00.0,31.5,24.6,16.1,0000.0,0005.57,0001.73,0000.73
2022-11-06 15:48:00,,0823.1,5.01,0.00,22.7,21.3,00.0,31.5,24.6,16.2,0000.0,0005.03,0001.71,0000.73
2022-11-06 15:49:00,,0823.1,4.99,0.00,22.7,21.3,00.0,31.5,24.6,16.2,0000.0,0005.81,0001.68,0000.72
2022-11-06 15:50:00,,0823.1,5.02,0.00,22.7,21.3,00.0,31.5,24.6,16.3,0000.0,0006.56,0001.64,0000.71
2022-11-06 15:51:00,,0823.1,4.98,0.00,22.7,21.4,00.0,31.5,24.7,16.5,0000.0,0006.71,0001.64,0000.72
2022-11-06 15:52:00,,0823.1,5.01,0.00,22.7,21.4,00.0,31.5,24.6,16.2,0000.0,0007.16,0001.64,0000.73
2022-11-06 15:53:00,,0823.1,5.01,0.00,22.7,21.4,00.0,31.5,24.6,16.3,0000.0,0007.30,0001.66,0000.72
2022-11-06 15:54:00,,0823.0,4.99,0.00,22.7,21.4,00.0,31.5,24.7,16.3,0000.0,0007.47,0001.63,0000.71
2022-11-06 15:55:00,,0822.9,5.02,0.00,22.7,21.5,00.0,31.5,24.7,16.3,0000.0,0008.20,0001.63,0000.70
2022-11-06 15:56:00,,0823.0,4.98,0.00,22.8,21.5,00.0,31.5,24.7,16.6,0000.0,0008.58,0001.65,0000.70
2022-11-06 15:57:00,,0823.0,5.02,0.00,22.8,21.5,00.0,31.5,24.7,16.4,0000.0,0008.52,0001.64,0000.70
2022-11-06 15:58:00,,0823.0,4.99,0.00,22.8,21.5,00.0,31.5,24.7,16.2,0000.0,0008.65,0001.69,0000.70
2022-11-06 15:59:00,,0822.9,5.00,0.00,22.8,21.5,00.0,31.5,24.7,16.2,0000.0,0008.61,0001.76,0000.70
